Location: Newark
(39.6172°N, 96.8533°W)
Time: 17:32:32
(UTC+00:00)

Explorer 7 - All Passes

Search period start: 19 February 2020 00:00
Search period end: 29 February 2020 00:00
Orbit: 485 x 679 km, 50.3° (Epoch: 18 February)

Date Brightness Start Highest point End Pass type
(mag) Time Alt. Az. Time Alt. Az. Time Alt. Az.
19 Feb - 00:19:22 10° NW 00:22:55 27° NNE 00:26:17 10° E daylight
19 Feb - 01:59:47 10° WNW 02:03:43 69° SW 02:07:28 10° SE visible
19 Feb - 17:40:36 10° S 17:43:46 18° SE 17:46:51 10° E daylight
19 Feb - 19:19:19 10° WSW 19:23:58 83° NW 19:28:22 10° NE daylight
19 Feb - 21:01:14 10° WNW 21:04:59 25° NNW 21:08:33 10° NE daylight
19 Feb - 22:43:31 10° NW 22:46:35 19° N 22:49:32 10° NE daylight
20 Feb - 00:24:13 10° NW 00:28:01 36° NNE 00:31:38 10° E daylight
20 Feb - 02:04:50 10° WNW 02:08:32 39° SW 02:12:05 10° SSE visible
20 Feb - 17:44:25 10° SSW 17:48:30 29° SE 17:52:25 10° ENE daylight
20 Feb - 19:24:22 10° WSW 19:28:55 56° NNW 19:33:14 10° NE daylight
20 Feb - 21:06:41 10° WNW 21:10:09 22° NNW 21:13:29 10° NE daylight
20 Feb - 22:48:34 10° NW 22:51:49 21° N 22:54:55 10° ENE daylight
21 Feb - 00:29:03 10° NW 00:33:04 53° NNE 00:36:51 10° ESE visible
21 Feb - 02:10:09 10° W 02:13:17 23° SW 02:16:19 10° S visible
21 Feb - 17:48:44 10° SSW 17:53:17 47° SE 17:57:38 10° ENE daylight
21 Feb - 19:29:35 10° W 19:33:57 40° NNW 19:38:05 10° NE daylight
21 Feb - 21:12:05 10° NW 21:15:22 20° N 21:18:31 10° NE daylight
21 Feb - 22:53:31 10° NW 22:57:00 24° NNE 23:00:19 10° ENE daylight
22 Feb - 00:33:55 10° NW 00:38:01 84° NE 00:41:53 10° SE visible
22 Feb - 02:16:04 10° W 02:17:57 13° SW 02:19:49 10° SSW visible
22 Feb - 16:15:56 10° SSE 16:18:05 13° SE 16:20:13 10° E daylight
22 Feb - 17:53:23 10° SW 17:58:09 74° SE 18:02:39 10° ENE daylight
22 Feb - 19:34:56 10° W 19:39:01 30° NNW 19:42:55 10° NE daylight
22 Feb - 21:17:23 10° NW 21:20:36 19° N 21:23:41 10° NE daylight
22 Feb - 22:58:23 10° NW 23:02:09 30° NNE 23:05:44 10° E daylight
23 Feb - 00:38:53 10° WNW 00:42:54 58° SW 00:46:41 10° SE visible
23 Feb - 16:19:08 10° S 16:22:46 22° SE 16:26:19 10° E daylight
23 Feb - 17:58:17 10° WSW 18:03:03 73° NNW 18:07:34 10° NE daylight
23 Feb - 19:40:21 10° WNW 19:44:10 25° NNW 19:47:49 10° NE daylight
23 Feb - 21:22:33 10° NW 21:25:50 20° N 21:28:59 10° NE daylight
23 Feb - 23:03:13 10° NW 23:07:14 41° NNE 23:11:02 10° E daylight
24 Feb - 00:44:00 10° WNW 00:47:41 34° SW 00:51:12 10° SSE visible
24 Feb - 16:23:09 10° SSW 16:27:30 34° SE 16:31:43 10° ENE daylight
24 Feb - 18:03:24 10° WSW 18:08:02 50° NNW 18:12:26 10° NE daylight
24 Feb - 19:45:47 10° WNW 19:49:21 22° N 19:52:47 10° NE daylight
24 Feb - 21:27:33 10° NW 21:31:03 22° N 21:34:22 10° ENE daylight
24 Feb - 23:08:04 10° NW 23:12:15 62° NNE 23:16:11 10° ESE daylight
25 Feb - 00:49:25 10° W 00:52:24 20° SW 00:55:16 10° S visible
25 Feb - 16:27:35 10° SW 16:32:18 55° SE 16:36:51 10° ENE daylight
25 Feb - 18:08:39 10° W 18:13:04 37° NNW 18:17:16 10° NE daylight
25 Feb - 19:51:09 10° NW 19:54:35 20° N 19:57:52 10° NE daylight
25 Feb - 21:32:29 10° NW 21:36:14 27° NNE 21:39:47 10° ENE daylight
25 Feb - 23:12:58 10° NW 23:17:11 84° SW 23:21:09 10° SE daylight
26 Feb - 00:55:43 10° WSW 00:57:02 11° SW 00:58:19 10° SW visible
26 Feb - 14:54:11 10° SSE 14:57:04 16° SE 14:59:53 10° E daylight
26 Feb - 16:32:19 10° SW 16:37:11 85° SE 16:41:50 10° NE daylight
26 Feb - 18:14:02 10° W 18:18:10 29° NNW 18:22:09 10° NE daylight
26 Feb - 19:56:24 10° NW 19:59:48 20° N 20:03:04 10° NE daylight
26 Feb - 21:37:21 10° NW 21:41:22 34° NNE 21:45:08 10° E daylight
26 Feb - 23:17:57 10° WNW 23:22:02 50° SW 23:25:52 10° SE daylight
27 Feb - 14:57:45 10° S 15:01:45 25° SE 15:05:39 10° ENE daylight
27 Feb - 16:37:17 10° WSW 16:42:07 66° NNW 16:46:44 10° NE daylight
27 Feb - 18:19:27 10° WNW 18:23:20 25° NNW 18:27:03 10° NE daylight
27 Feb - 20:01:32 10° NW 20:05:03 22° N 20:08:24 10° ENE daylight
27 Feb - 21:42:11 10° NW 21:46:26 47° NNE 21:50:23 10° ESE daylight
27 Feb - 23:23:08 10° WNW 23:26:48 29° SW 23:30:16 10° SSE daylight
28 Feb - 15:01:56 10° SSW 15:06:30 40° SE 15:10:56 10° ENE daylight
28 Feb - 16:42:26 10° WSW 16:47:06 46° NNW 16:51:35 10° NE daylight
28 Feb - 18:24:51 10° WNW 18:28:32 22° N 18:32:04 10° NE daylight
28 Feb - 20:06:31 10° NW 20:10:15 24° NNE 20:13:48 10° ENE daylight
28 Feb - 21:47:03 10° NW 21:51:25 72° NNE 21:55:29 10° ESE daylight
28 Feb - 23:28:41 10° W 23:31:29 18° SW 23:34:10 10° S daylight
